Time,TemperatureF,DewpointF,PressureIn,WindDirection,WindDirectionDegrees,WindSpeedMPH,WindSpeedGustMPH,Humidity,HourlyPrecipIn,Conditions,Clouds,dailyrainin,SoftwareType,DateUTC
2013-01-31 00:11:00,52.4,51.0,29.02,South,169,0.0,-999.0,94,-99.99,,,0.01,weatherlink.com 1.10,2013-01-31 05:11:00,
2013-01-31 00:26:00,52.8,51.0,29.00,SSE,167,6.0,-999.0,94,-99.99,,,0.03,weatherlink.com 1.10,2013-01-31 05:26:00,
2013-01-31 00:41:00,53.1,51.0,29.01,SSW,200,13.0,-999.0,93,-99.99,,,0.04,weatherlink.com 1.10,2013-01-31 05:41:00,
2013-01-31 00:56:00,49.2,45.0,29.06,WSW,246,7.0,-999.0,86,-99.99,,,0.08,weatherlink.com 1.10,2013-01-31 05:56:00,
2013-01-31 01:11:00,45.2,42.0,29.04,SW,230,4.0,-999.0,89,-99.99,,,0.09,weatherlink.com 1.10,2013-01-31 06:11:00,
2013-01-31 01:26:00,43.4,40.0,29.04,SW,226,5.0,-999.0,89,-99.99,,,0.10,weatherlink.com 1.10,2013-01-31 06:26:00,
2013-01-31 01:41:00,41.9,39.0,29.05,SSW,205,9.0,-999.0,89,-99.99,,,0.10,weatherlink.com 1.10,2013-01-31 06:41:00,
2013-01-31 01:56:00,41.1,38.0,29.07,West,271,9.0,-999.0,89,-99.99,,,0.10,weatherlink.com 1.10,2013-01-31 06:56:00,
2013-01-31 02:11:00,40.0,37.0,29.06,SW,236,7.0,-999.0,88,-99.99,,,0.10,weatherlink.com 1.10,2013-01-31 07:11:00,
2013-01-31 02:26:00,39.2,36.0,29.08,WSW,250,11.0,-999.0,88,-99.99,,,0.10,weatherlink.com 1.10,2013-01-31 07:26:00,
2013-01-31 02:41:00,38.0,35.0,29.06,WSW,250,22.0,-999.0,87,-99.99,,,0.10,weatherlink.com 1.10,2013-01-31 07:41:00,
2013-01-31 02:56:00,37.1,34.0,29.06,WSW,246,12.0,-999.0,87,-99.99,,,0.10,weatherlink.com 1.10,2013-01-31 07:56:00,
2013-01-31 03:11:00,36.5,33.0,29.07,West,271,15.0,-999.0,88,-99.99,,,0.10,weatherlink.com 1.10,2013-01-31 08:11:00,
2013-01-31 03:26:00,36.0,33.0,29.07,SSW,195,6.0,-999.0,88,-99.99,,,0.10,weatherlink.com 1.10,2013-01-31 08:26:00,
2013-01-31 03:41:00,35.6,32.0,29.07,WNW,284,10.0,-999.0,88,-99.99,,,0.10,weatherlink.com 1.10,2013-01-31 08:41:00,
2013-01-31 03:56:00,35.3,32.0,29.07,WSW,237,15.0,-999.0,89,-99.99,,,0.10,weatherlink.com 1.10,2013-01-31 08:56:00,
2013-01-31 04:11:00,34.8,32.0,29.07,WSW,248,10.0,-999.0,89,-99.99,,,0.10,weatherlink.com 1.10,2013-01-31 09:11:00,
2013-01-31 04:26:00,34.4,32.0,29.09,SW,223,10.0,-999.0,90,-99.99,,,0.10,weatherlink.com 1.10,2013-01-31 09:26:00,
2013-01-31 04:41:00,33.9,31.0,29.10,West,263,7.0,-999.0,90,-99.99,,,0.10,weatherlink.com 1.10,2013-01-31 09:41:00,
2013-01-31 04:56:00,33.5,31.0,29.11,West,268,13.0,-999.0,89,-99.99,,,0.10,weatherlink.com 1.10,2013-01-31 09:56:00,
2013-01-31 05:11:00,33.3,30.0,29.13,WSW,250,5.0,-999.0,89,-99.99,,,0.10,weatherlink.com 1.10,2013-01-31 10:11:00,
2013-01-31 05:26:00,32.9,30.0,29.14,SW,223,15.0,-999.0,89,-99.99,,,0.10,weatherlink.com 1.10,2013-01-31 10:26:00,
2013-01-31 05:40:00,32.2,29.0,29.15,SW,236,4.0,-999.0,89,-99.99,,,0.10,weatherlink.com 1.10,2013-01-31 10:40:00,
2013-01-31 05:56:00,31.4,29.0,29.16,WSW,249,5.0,-999.0,91,-99.99,,,0.10,weatherlink.com 1.10,2013-01-31 10:56:00,
2013-01-31 06:11:00,30.7,28.0,29.16,WNW,282,6.0,-999.0,91,-99.99,,,0.11,weatherlink.com 1.10,2013-01-31 11:11:00,
2013-01-31 06:26:00,30.4,28.0,29.18,SW,226,8.0,-999.0,89,-99.99,,,0.11,weatherlink.com 1.10,2013-01-31 11:26:00,
2013-01-31 06:41:00,30.3,26.0,29.19,WSW,247,11.0,-999.0,84,-99.99,,,0.11,weatherlink.com 1.10,2013-01-31 11:41:00,
2013-01-31 06:56:00,30.2,24.0,29.20,SW,236,14.0,-999.0,79,-99.99,,,0.11,weatherlink.com 1.10,2013-01-31 11:56:00,
2013-01-31 07:11:00,29.7,23.0,29.22,South,188,10.0,-999.0,76,-99.99,,,0.11,weatherlink.com 1.10,2013-01-31 12:11:00,
2013-01-31 07:26:00,29.3,22.0,29.23,North,355,8.0,-999.0,75,-99.99,,,0.11,weatherlink.com 1.10,2013-01-31 12:26:00,
2013-01-31 07:41:00,29.1,21.0,29.24,SW,221,18.0,-999.0,73,-99.99,,,0.11,weatherlink.com 1.10,2013-01-31 12:41:00,
2013-01-31 07:56:00,28.6,22.0,29.26,SW,215,6.0,-999.0,76,-99.99,,,0.11,weatherlink.com 1.10,2013-01-31 12:56:00,
2013-01-31 08:11:00,28.3,21.0,29.27,West,275,28.0,-999.0,75,-99.99,,,0.11,weatherlink.com 1.10,2013-01-31 13:11:00,
2013-01-31 08:26:00,28.2,22.0,29.29,WSW,238,9.0,-999.0,76,-99.99,,,0.11,weatherlink.com 1.10,2013-01-31 13:26:00,
2013-01-31 08:41:00,27.9,21.0,29.29,SW,229,9.0,-999.0,74,-99.99,,,0.11,weatherlink.com 1.10,2013-01-31 13:41:00,
2013-01-31 08:56:00,27.5,22.0,29.32,West,273,10.0,-999.0,79,-99.99,,,0.11,weatherlink.com 1.10,2013-01-31 13:56:00,
2013-01-31 09:11:00,27.1,21.0,29.33,SW,226,10.0,-999.0,78,-99.99,,,0.11,weatherlink.com 1.10,2013-01-31 14:11:00,
2013-01-31 09:26:00,26.7,22.0,29.34,West,281,5.0,-999.0,81,-99.99,,,0.11,weatherlink.com 1.10,2013-01-31 14:26:00,
2013-01-31 09:41:00,26.5,21.0,29.34,WSW,246,10.0,-999.0,80,-99.99,,,0.11,weatherlink.com 1.10,2013-01-31 14:41:00,
2013-01-31 09:56:00,27.3,20.0,29.35,West,279,5.0,-999.0,75,-99.99,,,0.11,weatherlink.com 1.10,2013-01-31 14:56:00,
2013-01-31 10:11:00,27.6,20.0,29.36,SW,225,9.0,-999.0,72,-99.99,,,0.11,weatherlink.com 1.10,2013-01-31 15:11:00,
2013-01-31 10:26:00,27.8,19.0,29.37,SW,233,15.0,-999.0,69,-99.99,,,0.11,weatherlink.com 1.10,2013-01-31 15:26:00,
2013-01-31 10:41:00,27.4,19.0,29.37,SSW,210,9.0,-999.0,72,-99.99,,,0.11,weatherlink.com 1.10,2013-01-31 15:41:00,
2013-01-31 10:56:00,26.9,21.0,29.37,WSW,257,7.0,-999.0,78,-99.99,,,0.11,weatherlink.com 1.10,2013-01-31 15:56:00,
2013-01-31 11:11:00,26.6,22.0,29.37,West,268,12.0,-999.0,81,-99.99,,,0.11,weatherlink.com 1.10,2013-01-31 16:11:00,
2013-01-31 11:26:00,26.5,20.0,29.37,WSW,248,12.0,-999.0,75,-99.99,,,0.11,weatherlink.com 1.10,2013-01-31 16:26:00,
2013-01-31 11:41:00,26.9,18.0,29.38,SW,222,12.0,-999.0,69,-99.99,,,0.11,weatherlink.com 1.10,2013-01-31 16:41:00,
2013-01-31 11:56:00,27.0,18.0,29.39,WNW,300,10.0,-999.0,68,-99.99,,,0.11,weatherlink.com 1.10,2013-01-31 16:56:00,
2013-01-31 12:11:00,28.0,17.0,29.40,WSW,237,17.0,-999.0,63,-99.99,,,0.11,weatherlink.com 1.10,2013-01-31 17:11:00,
2013-01-31 12:26:00,27.5,16.0,29.41,West,269,7.0,-999.0,61,-99.99,,,0.11,weatherlink.com 1.10,2013-01-31 17:26:00,
2013-01-31 12:41:00,27.2,15.0,29.40,WSW,243,17.0,-999.0,61,-99.99,,,0.11,weatherlink.com 1.10,2013-01-31 17:41:00,
2013-01-31 12:56:00,27.4,15.0,29.42,West,269,5.0,-999.0,60,-99.99,,,0.11,weatherlink.com 1.10,2013-01-31 17:56:00,
2013-01-31 13:11:00,27.2,16.0,29.43,SW,232,14.0,-999.0,63,-99.99,,,0.11,weatherlink.com 1.10,2013-01-31 18:11:00,
2013-01-31 13:26:00,26.7,16.0,29.44,SW,218,18.0,-999.0,65,-99.99,,,0.11,weatherlink.com 1.10,2013-01-31 18:26:00,
2013-01-31 13:41:00,27.0,17.0,29.45,WSW,244,11.0,-999.0,67,-99.99,,,0.11,weatherlink.com 1.10,2013-01-31 18:41:00,
2013-01-31 13:56:00,26.8,16.0,29.45,SW,226,7.0,-999.0,65,-99.99,,,0.11,weatherlink.com 1.10,2013-01-31 18:56:00,
2013-01-31 14:11:00,26.9,16.0,29.46,SW,233,13.0,-999.0,64,-99.99,,,0.11,weatherlink.com 1.10,2013-01-31 19:11:00,
2013-01-31 14:25:00,27.0,15.0,29.48,SW,223,12.0,-999.0,62,-99.99,,,0.11,weatherlink.com 1.10,2013-01-31 19:25:00,
2013-01-31 14:40:00,26.9,15.0,29.48,WNW,291,5.0,-999.0,62,-99.99,,,0.11,weatherlink.com 1.10,2013-01-31 19:40:00,
2013-01-31 14:55:00,27.0,16.0,29.49,West,261,3.0,-999.0,63,-99.99,,,0.11,weatherlink.com 1.10,2013-01-31 19:55:00,
2013-01-31 15:11:00,26.5,14.0,29.49,SSW,208,8.0,-999.0,59,-99.99,,,0.11,weatherlink.com 1.10,2013-01-31 20:11:00,
2013-01-31 15:26:00,26.1,14.0,29.51,SW,219,11.0,-999.0,60,-99.99,,,0.11,weatherlink.com 1.10,2013-01-31 20:26:00,
2013-01-31 15:41:00,26.6,15.0,29.52,West,259,6.0,-999.0,61,-99.99,,,0.11,weatherlink.com 1.10,2013-01-31 20:41:00,
2013-01-31 15:56:00,26.7,14.0,29.52,WNW,286,7.0,-999.0,60,-99.99,,,0.11,weatherlink.com 1.10,2013-01-31 20:56:00,
2013-01-31 16:11:00,26.2,14.0,29.53,WNW,296,5.0,-999.0,61,-99.99,,,0.11,weatherlink.com 1.10,2013-01-31 21:11:00,
2013-01-31 16:26:00,25.8,14.0,29.54,West,272,19.0,-999.0,62,-99.99,,,0.11,weatherlink.com 1.10,2013-01-31 21:26:00,
2013-01-31 16:41:00,25.6,15.0,29.55,West,277,8.0,-999.0,64,-99.99,,,0.11,weatherlink.com 1.10,2013-01-31 21:41:00,
2013-01-31 16:56:00,25.0,15.0,29.55,West,261,5.0,-999.0,67,-99.99,,,0.11,weatherlink.com 1.10,2013-01-31 21:56:00,
2013-01-31 17:11:00,24.4,16.0,29.56,SW,215,6.0,-999.0,69,-99.99,,,0.11,weatherlink.com 1.10,2013-01-31 22:11:00,
2013-01-31 17:26:00,24.2,16.0,29.58,SW,219,6.0,-999.0,72,-99.99,,,0.11,weatherlink.com 1.10,2013-01-31 22:26:00,
2013-01-31 17:41:00,24.2,17.0,29.59,SW,219,6.0,-999.0,74,-99.99,,,0.11,weatherlink.com 1.10,2013-01-31 22:41:00,
2013-01-31 17:56:00,24.3,15.0,29.59,NW,314,5.0,-999.0,68,-99.99,,,0.11,weatherlink.com 1.10,2013-01-31 22:56:00,
2013-01-31 18:11:00,24.3,14.0,29.60,West,263,4.0,-999.0,66,-99.99,,,0.11,weatherlink.com 1.10,2013-01-31 23:11:00,
2013-01-31 18:26:00,24.1,14.0,29.61,West,271,4.0,-999.0,66,-99.99,,,0.11,weatherlink.com 1.10,2013-01-31 23:26:00,
2013-01-31 18:41:00,23.4,17.0,29.62,SSW,196,4.0,-999.0,77,-99.99,,,0.11,weatherlink.com 1.10,2013-01-31 23:41:00,
2013-01-31 18:56:00,22.9,17.0,29.62,WSW,241,2.0,-999.0,77,-99.99,,,0.11,weatherlink.com 1.10,2013-01-31 23:56:00,
2013-01-31 19:11:00,23.3,16.0,29.63,WSW,254,7.0,-999.0,74,-99.99,,,0.11,weatherlink.com 1.10,2013-02-01 00:11:00,
2013-01-31 19:26:00,23.2,16.0,29.64,WSW,242,5.0,-999.0,73,-99.99,,,0.11,weatherlink.com 1.10,2013-02-01 00:26:00,
2013-01-31 19:41:00,23.0,15.0,29.64,WSW,257,0.0,-999.0,72,-99.99,,,0.11,weatherlink.com 1.10,2013-02-01 00:41:00,
2013-01-31 19:56:00,22.7,16.0,29.65,SW,232,9.0,-999.0,74,-99.99,,,0.11,weatherlink.com 1.10,2013-02-01 00:56:00,
2013-01-31 20:11:00,22.5,15.0,29.65,WNW,284,4.0,-999.0,74,-99.99,,,0.11,weatherlink.com 1.10,2013-02-01 01:11:00,
2013-01-31 20:26:00,22.5,14.0,29.66,WSW,254,14.0,-999.0,71,-99.99,,,0.11,weatherlink.com 1.10,2013-02-01 01:26:00,
2013-01-31 20:41:00,22.3,15.0,29.66,WSW,258,1.0,-999.0,72,-99.99,,,0.11,weatherlink.com 1.10,2013-02-01 01:41:00,
2013-01-31 20:56:00,22.1,14.0,29.66,West,268,9.0,-999.0,72,-99.99,,,0.11,weatherlink.com 1.10,2013-02-01 01:56:00,
2013-01-31 21:11:00,22.1,14.0,29.66,WSW,246,5.0,-999.0,71,-99.99,,,0.11,weatherlink.com 1.10,2013-02-01 02:11:00,
2013-01-31 21:26:00,22.1,14.0,29.67,West,281,5.0,-999.0,70,-99.99,,,0.11,weatherlink.com 1.10,2013-02-01 02:26:00,
2013-01-31 21:41:00,22.1,13.0,29.67,West,263,19.0,-999.0,68,-99.99,,,0.11,weatherlink.com 1.10,2013-02-01 02:41:00,
2013-01-31 21:56:00,21.8,14.0,29.68,WSW,254,5.0,-999.0,71,-99.99,,,0.11,weatherlink.com 1.10,2013-02-01 02:56:00,
2013-01-31 22:11:00,21.3,13.0,29.68,WSW,257,3.0,-999.0,71,-99.99,,,0.11,weatherlink.com 1.10,2013-02-01 03:11:00,
2013-01-31 22:26:00,21.5,13.0,29.68,WSW,246,12.0,-999.0,71,-99.99,,,0.11,weatherlink.com 1.10,2013-02-01 03:26:00,
2013-01-31 22:41:00,21.4,13.0,29.69,West,260,2.0,-999.0,70,-99.99,,,0.11,weatherlink.com 1.10,2013-02-01 03:41:00,
2013-01-31 22:56:00,21.5,13.0,29.69,WSW,254,5.0,-999.0,70,-99.99,,,0.11,weatherlink.com 1.10,2013-02-01 03:56:00,
2013-01-31 23:11:00,21.3,14.0,29.69,WNW,292,4.0,-999.0,73,-99.99,,,0.11,weatherlink.com 1.10,2013-02-01 04:11:00,
2013-01-31 23:26:00,21.1,13.0,29.70,West,267,5.0,-999.0,72,-99.99,,,0.11,weatherlink.com 1.10,2013-02-01 04:26:00,
2013-01-31 23:41:00,21.1,12.0,29.70,SW,229,11.0,-999.0,68,-99.99,,,0.11,weatherlink.com 1.10,2013-02-01 04:41:00,
2013-01-31 23:56:00,21.2,12.0,29.71,WSW,248,4.0,-999.0,68,-99.99,,,0.11,weatherlink.com 1.10,2013-02-01 04:56:00,